Home   Weather   MD of Lunenburg   Past weeks

Flag for Canada Past Weather in MD of Lunenburg, Nova Scotia, Canada — Yesterday and Last 2 Weeks

Now
29 °F

Chilly.


Feels Like: 25 °F
Forecast: 22 / 32 °F
Wind: 3 mph from Northwest

Location: McNabs Island - AUT

Current Time: Dec 5, 2016 at 4:38:42 am

Latest Report: Dec 5, 2016 at 4:00 am


Visibility: N/A

Pressure: 30.03 "Hg

Humidity: 72%

Dew Point: 21 °F

Location of MD of LunenburgLocation

Past Weather in MD of Lunenburg — Graph

°F

MD of Lunenburg Temperature Yesterday

Maximum temperature yesterday: 36 °F (at 12:00 am)
Minimum temperature yesterday: 30 °F (at 11:00 pm)
Average temperature yesterday: 33 °F

High & Low Weather Summary for the Past Weeks

 TemperatureHumidityPressure
High51 °F (Nov 20, 8:00 am)100% (Nov 27, 3:00 pm)30.37 "Hg (Nov 27, 3:00 pm)
Low29 °F (Dec 5, 12:00 am)59% (Nov 25, 12:00 pm)29.26 "Hg (Dec 1, 12:00 pm)
Average39 °F83%29.83 "Hg
* Reported Nov 20 3:00 am — Dec 5 3:00 am, MD of Lunenburg, Weather by CustomWeather, © 2016

Note: Actual official high and low records may vary slightly from our data, if they occured in-between our weather recording intervals... More about our weather records

Advertising

MD of Lunenburg Weather History for the Previous 24 Hours

Scroll right to see more
 ConditionsComfort  
Time TempWeatherWind HumidityBarometerVisibility
3:00 am
Mon, Dec 5
29 °FChilly.7 mph71%30.03 "HgN/A
2:00 am29 °FChilly.8 mph69%30.04 "HgN/A
1:00 am29 °FChilly.7 mph69%30.04 "HgN/A
12:00 am29 °FChilly.10 mph68%30.05 "HgN/A
11:00 pm
Sun, Dec 4
30 °FChilly.9 mph73%30.05 "HgN/A
10:00 pm31 °FChilly.10 mph69%30.04 "HgN/A
9:00 pm31 °FChilly.8 mph70%30.03 "HgN/A
8:00 pm31 °FChilly.10 mph69%30.03 "HgN/A
7:00 pm31 °FChilly.12 mph79%30.01 "HgN/A
6:00 pm33 °FChilly.9 mph72%30.00 "HgN/A
5:00 pm32 °FChilly.10 mph74%29.98 "HgN/A
4:00 pm33 °FChilly.10 mph68%29.95 "HgN/A
3:00 pm34 °FChilly.9 mph65%29.92 "HgN/A
2:00 pm34 °FChilly.12 mph67%29.90 "HgN/A
1:00 pm34 °FChilly.10 mph72%29.90 "HgN/A
12:00 pm34 °FChilly.10 mph71%29.90 "HgN/A
11:00 am34 °FChilly.10 mph77%29.90 "HgN/A
10:00 am35 °FChilly.12 mph72%29.90 "HgN/A
9:00 am34 °FChilly.7 mph81%29.89 "HgN/A
8:00 am31 °FChilly.8 mph90%29.87 "HgN/A
7:00 am31 °FChilly.9 mph91%29.85 "HgN/A
6:00 am33 °FChilly.9 mph85%29.83 "HgN/A
5:00 am33 °FChilly.8 mph87%29.82 "HgN/A
4:00 am34 °FChilly.9 mph84%29.80 "HgN/A
Weather by CustomWeather, © 2016

See weather overviewHow to use our weather pages